Simultaneous Nadir Overpasses (SNOs) Predictions

Prediction of SNOs between FY3D and AQUA Satellite Orbit:

Table of predicted SNOs for the next 14.0 days since TLE Epoch: 10/16/2021
Index Date (FY3D) Time (FY3D) Lat,Lon (FY3D) SZA (FY3D ) Date (AQUA) Time (AQUA) Lat,Lon (AQUA) SZA (AQUA ) Distance(km) Time Diff (sec)
1 10/16/2021 20:43:43 68.96,-129.13 78.15 10/16/2021 20:44:32 68.96,-129.16 78.16 1.58 49
2 10/16/2021 21:33:20 -65.41, 42.40 105.17 10/16/2021 21:32:54 -65.42, 42.38 105.18 0.98 26
3 10/19/2021 13:00:16 69.80, -14.38 79.92 10/19/2021 13:01:15 69.80, -14.38 79.93 0.06 59
4 10/19/2021 13:49:54 -66.32, 157.39 103.35 10/19/2021 13:49:38 -66.32, 157.37 103.36 0.50 16
5 10/22/2021 05:16:44 70.42, 100.60 81.48 10/22/2021 05:17:53 70.42, 100.62 81.48 0.90 69
6 10/22/2021 06:06:24 -67.06, -87.50 101.70 10/22/2021 06:06:18 -67.07, -87.52 101.70 0.65 6
7 10/24/2021 21:37:07 80.72, 170.72 94.97 10/24/2021 21:38:20 81.16, 171.88 95.16 52.65 73
8 10/24/2021 22:22:51 -67.59, 27.82 100.27 10/24/2021 22:22:55 -67.60, 27.79 100.27 1.47 4
9 10/24/2021 23:12:29 63.86,-160.95 76.30 10/24/2021 23:11:17 63.86,-160.93 76.27 1.04 72
10 10/27/2021 14:39:32 -68.87, 142.12 98.15 10/27/2021 14:39:45 -68.86, 142.17 98.15 2.12 13



Historial Predications of SNOs between FY3D and AQUA
